Presure
138 163 131 133 145 148 118 119 117 116 128 133 116 108 110 131 134 149 137 150 135 142 146 138 148 152 154 155 156 154 161 167 173 166 173 174 180 177 199 184 192 196 205 207
117 127 139 131 115 127 126 129 129 114 114 117 136 139 125 140 140 79 120 131 143 139 140 145 143 146 150 151 156 160 171 168 168 173 175 179 181 201 187 192 197 207 212 236
157 154 154 135 128 140 130 120 118 123 115 133 137 119 118 134 114 131 145 101 139 140 146 149 154 152 154 161 171 172 163 171 171 176 176 187 199 189 191 201 210 220 234 216
143 141 149 153 144 122 150 159 157 149 134 138 85 141 135 136 141 133 144 144 147 150 152 156 162 162 168 171 162 167 170 171 177 186 187 137 192 192 204 208 221 127 223 223
158 128 126 126 139 135 143 133 127 129 132 132 105 167 150 72 140 151 148 150 153 154 157 158 160 163 167 170 171 170 178 182 211 184 186 192 195 208 206 228 221 231 227 228
164 142 133 134 124 129 136 137 136 141 151 150 153 151 149 118 160 163 155 158 162 153 166 165 166 171 173 179 180 193 154 192 187 189 120 197 210 205 237 212 229 227 227 232
145 141 160 143 149 146 151 145 140 145 149 142 151 156 157 157 156 158 165 167 161 170 173 178 177 181 187 183 193 213 200 185 191 193 201 209 231 222 225 221 224 232 245 254
162 160 138 163 157 154 153 156 158 160 158 160 167 170 172 170 172 170 179 178 179 180 180 182 188 208 214 201 195 186 190 191 197 211 207 234 210 201 228 222 229 232 252 268
165 171 188 172 172 162 168 163 166 174 169 179 179 181 77 203 201 140 195 179 169 187 189 199 213 185 190 189 189 190 194 204 210 231 218 212 206 225 225 240 250 252 268 250
194 194 159 187 205 192 202 185 185 186 190 191 190 190 188 189 188 186 187 189 205 222 205 193 186 186 185 191 197 201 220 220 225 210 205 219 223 227 235 229 266 244 248 249
208 210 171 189 196 194 195 194 198 200 200 200 196 193 196 133 193 178 190 219 231 186 186 185 187 192 194 195 210 218 228 210 217 201 200 214 235 228 238 261 272 258 245 255
182 192 190 177 203 205 203 203 205 199 193 200 216 183 184 185 185 179 184 185 185 192 187 189 193 199 210 230 234 213 207 215 194 201 204 230 232 243 258 253 250 263 262 255
220 246 229 210 203 203 141 198 200 188 197 181 178 129 185 173 182 187 189 189 191 192 194 204 210 211 234 210 217 212 203 193 202 209 236 223 252 270 249 250 263 248 253 250
227 229 238 237 227 219 219 211 204 201 204 198 168 181 197 198 194 198 200 201 209 212 207 230 229 208 221 207 204 191 194 197 205 227 235 233 261 253 249 240 250 256 264 271
256 225 220 215 230 196 222 227 219 213 195 173 116 212 214 216 222 217 214 220 235 234 220 225 202 209 198 186 195 189 202 215 229 234 263 218 220 255 252 250 270 258 260 266
249 185 184 187 175 206 224 219 215 187 215 199 220 201 220 129 194 242 228 224 228 208 197 195 192 192 96 193 192 203 231 233 236 240 215 268 263 252 241 247 267 256 252 266
235 220 220 229 201 241 246 253 261 264 265 263 250 246 234 225 228 227 214 204 197 196 199 200 202 197 188 198 210 203 236 244 266 278 266 263 250 251 251 270 262 263 254 262
220 210 226 247 242 233 230 231 233 187 225 222 220 224 225 211 204 201 198 195 194 195 199 217 220 210 209 212 205 238 239 288 214 266 254 259 268 255 271 258 251 255 259 278
206 204 132 204 180 123 210 226 228 206 224 222 211 201 197 196 194 198 199 199 202 220 226 208 209 198 210 207 239 295 269 271 268 265 271 265 266 262 242 248 253 257 266 266
119 213 140 140 195 200 195 201 200 197 194 202 196 193 195 192 197 200 221 211 228 222 217 210 205 205 217 286 274 275 273 250 254 264 251 257 259 250 250 252 254 257 273 256
216 213 209 209 206 205 207 202 199 205 201 193 200 197 202 211 218 210 228 229 220 212 209 202 208 240 304 276 283 274 256 257 253 250 248 239 255 255 243 267 268 279 256 258
238 227 219 216 213 212 214 208 205 203 207 207 211 221 219 215 222 231 231 212 206 200 212 206 208 295 278 267 287 275 252 251 248 241 253 238 243 250 266 264 272 253 251 262
221 220 238 222 216 215 211 214 212 212 215 217 213 211 214 227 230 234 211 207 204 204 209 308 304 280 274 273 269 256 251 251 253 247 248 250 268 264 266 258 253 252 257 267
219 215 238 234 230 223 219 216 214 212 213 215 215 228 229 232 231 210 202 210 207 212 345 327 316 280 277 262 258 263 255 247 249 250 260 262 252 261 259 260 244 256 257 273
207 211 220 229 235 231 229 228 231 233 233 231 230 226 233 223 201 202 209 202 217 315 324 327 303 299 274 270 260 253 251 252 263 239 258 261 253 263 252 243 245 256 272 287
212 213 210 225 232 231 230 232 230 229 225 224 178 223 201 201 142 204 200 224 285 323 306 291 283 295 282 287 275 274 275 268 275 280 263 263 251 238 238 249 252 284 283 269
Wind_Speed
39 50 45 43 43 45 39 41 43 46 50 51 51 50 51 59 56 61 63 69 71 76 77 80 84 86 90 94 97 98 102 107 110 111 114 116 119 119 122 124 128 130 132 131
41 46 46 39 38 44 44 44 46 46 46 53 57 62 53 65 61 15 66 71 75 77 80 84 85 89 94 95 100 103 106 109 112 115 117 119 121 122 125 128 131 131 131 124
44 56 49 45 45 49 46 45 47 49 49 54 55 65 67 62 62 67 70 34 75 78 82 87 93 97 100 102 104 105 108 112 114 117 119 120 121 125 127 132 131 131 123 123
49 54 45 46 49 47 54 56 57 56 55 56 25 61 71 60 61 56 69 72 78 80 85 90 94 98 100 102 104 108 112 113 115 118 119 86 126 128 134 132 132 63 124 123
61 49 48 50 53 54 53 55 57 59 57 58 43 66 69 15 71 72 71 74 81 82 87 91 95 98 101 103 106 109 112 115 117 119 121 124 127 131 130 127 122 124 123 117
61 54 49 52 56 57 60 61 61 62 64 61 72 66 65 49 79 83 79 82 88 85 93 95 97 100 102 104 107 111 80 114 117 120 70 128 129 129 118 121 120 122 121 122
53 55 57 57 60 63 63 65 63 59 64 64 73 73 70 76 77 81 85 89 87 94 95 96 99 101 103 92 108 110 111 116 120 123 127 127 120 116 118 117 119 116 112 110
65 62 58 68 63 63 65 66 69 70 69 75 83 84 84 84 85 84 88 90 92 93 96 97 99 103 106 107 109 113 117 119 124 126 124 111 116 114 116 116 115 115 108 104
72 74 71 73 77 74 71 73 72 74 77 76 81 85 16 80 82 68 86 87 85 94 96 99 100 105 107 110 113 116 119 124 122 111 111 114 115 115 114 107 107 104 101 105
71 70 60 63 69 76 73 77 77 77 75 76 77 79 82 83 84 87 89 93 95 97 97 98 103 106 109 112 116 119 116 113 105 111 110 114 112 112 108 108 97 101 103 105
67 65 47 70 73 73 73 74 74 73 75 74 72 76 78 47 83 86 87 88 89 96 99 101 105 109 113 115 116 111 100 106 107 107 110 113 105 107 102 94 94 96 101 105
67 69 67 71 68 67 70 71 71 71 75 77 72 74 79 81 83 87 90 93 96 99 100 104 108 111 112 105 93 99 104 101 104 109 111 105 102 100 92 95 97 98 100 105
60 57 68 70 69 67 56 69 70 69 74 72 72 61 78 79 84 88 92 95 98 101 104 105 103 101 87 96 94 97 101 104 107 109 100 102 92 84 92 95 95 98 101 103
58 58 60 65 73 72 73 71 71 73 76 77 76 80 82 84 85 89 93 95 96 95 96 86 81 88 86 94 97 99 103 107 107 102 99 98 84 88 92 98 96 98 98 103
51 56 60 65 65 63 69 76 78 78 71 73 51 85 87 87 87 86 88 89 77 74 79 79 84 86 90 94 99 101 105 104 102 99 85 99 98 85 89 90 89 92 97 100
43 58 60 62 64 65 66 69 71 69 74 73 78 77 80 65 65 66 73 75 72 77 81 83 86 90 47 98 101 101 98 100 99 98 96 80 83 88 91 91 86 90 91 95
39 47 52 54 59 50 55 55 50 48 48 49 53 55 61 67 67 68 71 74 77 80 85 88 92 95 92 100 100 101 98 97 85 76 79 81 84 87 90 86 85 88 90 97
43 51 44 39 44 48 51 52 52 60 57 60 62 61 61 65 68 71 74 77 81 85 88 88 88 94 98 99 100 96 94 73 76 74 80 83 83 86 78 82 82 86 92 87
54 55 49 55 52 55 53 49 46 57 53 54 58 62 65 68 71 74 78 81 84 83 81 87 91 95 96 99 95 63 67 65 66 69 67 74 74 76 79 82 84 86 87 83
47 51 54 58 60 61 63 58 60 62 62 61 66 69 69 71 74 77 76 80 76 79 83 90 94 97 99 71 75 70 61 76 72 66 71 71 72 77 80 85 84 85 77 78
52 53 54 56 56 61 61 60 63 63 63 66 66 69 73 75 74 76 76 75 79 83 87 93 95 93 57 74 62 61 63 64 68 67 68 74 73 76 79 82 83 71 73 77
44 50 55 55 57 61 60 63 65 66 68 70 71 70 70 71 72 70 69 75 82 91 91 94 95 52 59 67 59 54 61 63 67 72 68 72 74 79 71 74 65 68 72 77
48 48 47 55 60 61 64 65 67 67 68 69 71 74 76 73 72 71 72 78 85 89 92 53 46 59 62 57 53 60 62 64 69 67 71 78 67 67 69 68 66 70 72 76
49 50 46 50 54 58 62 65 67 68 70 70 70 68 69 71 70 71 78 81 86 89 42 43 47 53 57 56 60 59 62 64 66 71 78 58 64 64 65 62 66 69 71 74
52 53 53 49 50 52 57 60 60 60 61 63 64 65 67 67 73 77 79 86 86 58 45 44 47 48 48 56 56 61 64 68 75 63 59 58 60 59 59 63 65 68 72 67
52 54 55 53 53 54 55 55 56 59 59 61 50 63 66 70 47 80 86 81 71 51 48 52 48 38 42 48 54 60 62 63 61 55 54 54 52 56 60 64 66 68 62 60
Wind_Direction
257 265 256 260 274 281 277 275 280 289 286 292 294 297 297 293 298 304 301 302 305 309 310 308 309 310 310 310 311 312 312 310 311 313 313 315 314 316 315 318 318 318 317 318
262 263 258 265 278 270 273 276 277 292 298 295 294 296 296 294 303 312 309 309 308 307 307 308 312 311 310 310 310 311 310 310 312 312 315 314 315 314 318 317 317 317 318 317
263 266 266 265 268 273 273 283 288 286 287 287 288 295 303 298 310 302 301 309 303 303 306 308 307 308 307 308 308 309 310 310 312 313 313 313 314 317 317 316 317 318 318 320
253 258 266 272 271 279 278 283 288 284 281 285 302 284 294 295 298 298 299 300 301 304 306 306 305 304 305 306 309 309 308 310 310 310 313 317 317 317 316 317 318 319 320 319
264 266 269 271 270 273 279 275 280 283 285 289 293 289 293 315 298 299 299 301 302 305 304 303 305 306 305 306 307 306 307 308 308 314 315 315 317 316 317 317 318 318 320 319
265 263 265 269 273 273 274 274 278 281 284 290 288 294 294 299 298 298 302 304 304 303 303 304 304 303 304 304 304 305 309 310 313 314 316 315 316 316 317 318 318 319 319 320
260 264 273 263 266 271 273 275 281 284 288 289 291 294 295 295 297 299 301 301 301 302 302 301 302 302 303 306 305 307 309 312 313 314 314 314 315 317 317 318 318 318 317 320
263 263 264 268 272 276 276 279 283 286 288 291 292 292 292 295 296 297 297 297 298 298 299 301 302 303 303 305 308 311 311 312 312 312 313 315 317 319 317 317 317 317 321 322
262 264 262 270 271 273 272 280 284 285 288 286 286 289 315 289 292 298 295 296 298 298 301 302 302 304 307 309 309 309 310 310 311 313 316 316 318 316 316 316 317 319 321 319
258 260 267 264 264 270 271 277 280 281 282 283 285 288 290 292 294 295 295 297 297 297 301 304 305 308 308 307 307 308 310 312 312 315 317 316 316 314 315 315 321 320 319 322
260 261 260 266 266 272 274 277 279 281 282 284 285 285 287 293 292 297 297 294 296 302 304 304 305 306 306 306 307 310 311 311 313 316 318 316 313 313 317 321 324 322 319 323
261 265 265 268 269 271 272 274 277 283 287 286 280 292 293 295 297 299 299 300 300 300 302 304 304 304 305 307 310 308 309 311 316 317 316 313 314 315 319 318 320 324 325 324
257 249 257 269 272 274 283 282 283 284 283 287 291 298 293 296 296 297 297 298 299 300 300 300 302 304 307 306 309 309 311 316 315 314 314 313 316 323 318 321 325 322 324 324
257 259 255 257 264 272 272 276 280 281 283 286 294 292 290 290 293 294 294 294 295 297 299 302 304 304 306 307 309 314 315 316 314 313 314 315 318 316 316 317 322 324 329 329
254 258 262 264 265 275 272 273 275 280 286 290 295 286 287 290 292 293 295 297 300 301 301 304 305 305 307 310 311 317 312 311 313 313 317 314 316 318 318 322 328 327 327 330
264 270 271 272 277 276 275 276 278 287 284 285 286 289 290 305 302 300 300 301 303 302 303 305 306 308 319 310 313 313 313 312 313 314 315 318 318 316 317 323 325 326 328 333
263 267 271 272 279 280 277 280 286 290 294 296 296 297 296 296 300 302 303 303 304 306 308 307 307 308 313 312 312 315 313 312 314 316 316 317 316 319 323 325 327 327 329 331
266 267 272 279 277 275 276 280 283 291 287 291 294 297 300 301 302 302 303 305 306 307 307 307 308 307 308 311 315 311 311 314 319 318 315 316 322 321 323 326 326 329 332 336
265 268 286 274 282 293 280 283 285 287 288 290 292 294 296 299 301 304 306 307 306 306 308 309 305 310 311 314 311 312 317 314 316 318 322 325 322 323 326 326 328 332 333 335
280 273 284 286 275 279 281 284 286 287 289 293 295 297 299 301 303 305 304 304 308 308 308 306 309 313 314 314 314 315 320 311 313 323 322 323 324 323 324 325 327 332 334 334
271 272 275 278 281 283 285 288 289 291 293 296 296 298 300 301 305 307 311 310 309 307 306 308 310 312 309 311 311 316 312 316 320 320 320 322 326 325 326 327 330 334 333 337
280 274 276 279 281 282 285 288 291 296 296 297 297 299 300 304 305 307 308 306 304 305 308 310 315 310 304 306 311 311 306 313 314 316 322 320 324 325 328 332 332 332 335 338
278 282 276 276 279 283 286 287 289 292 293 298 302 304 306 306 309 311 307 304 303 306 309 302 301 301 306 309 312 309 312 313 314 317 318 322 325 328 328 332 330 333 337 339
285 287 284 278 278 281 284 289 292 294 296 297 299 301 304 308 310 305 302 305 306 309 303 298 286 299 304 308 307 308 309 313 316 319 320 323 328 328 330 328 331 333 336 338
284 287 289 289 287 286 287 288 291 295 298 300 302 305 309 310 304 306 308 308 310 320 319 309 299 295 296 303 304 308 309 312 313 320 323 324 325 327 329 329 330 333 337 339
282 285 289 292 292 292 294 296 297 298 301 304 305 311 307 307 313 306 306 313 322 320 316 319 317 313 310 308 304 307 312 315 318 320 325 326 327 327 327 328 331 335 336 338